Location: Divi�ov
(49.7876°N, 14.8767°E)
Time: 06:40:15
(UTC+00:00)

Daily predictions for brighter satellites

Satellite Brightness Start Highest point End
(mag) Time Altitude Azimuth Time Altitude Azimuth Time Altitude Azimuth
MetOp-B 4.3 19:47:53 10° SSE 19:53:14 85° WSW 19:58:39 10° NNW
Cosmos 1110 Rocket 4.1 19:48:46 10° S 19:53:50 59° ESE 19:58:58 10° NNE
Cosmos 1908 3.2 19:51:58 10° N 19:55:52 80° E 19:59:43 10° SSE
In-Cosmos 22 4.2 19:51:35 10° SSW 19:56:51 84° WNW 20:02:13 10° N
Cosmos 1544 Rocket 3.8 19:52:44 10° N 19:57:10 59° ENE 20:01:33 10° SSE
Cosmos 1626 2.5 19:56:29 10° SSE 20:00:01 45° E 20:03:33 10° NNE
Cosmos 1455 Rocket 3.2 19:57:07 10° NNW 20:01:36 79° W 20:06:03 10° S
FALCON 9 DEB 3.0 19:58:29 10° WSW 20:01:55 82° SSE 20:05:21 10° ENE
Cosmos 2100 Rocket 4.1 19:56:31 10° N 20:02:56 89° E 20:09:16 10° S
ARIANE 5 R/B 2.8 20:01:37 10° SSE 20:06:02 67° ENE 20:10:31 10° N
BREEZE-M DEB (TANK) 2.9 20:05:28 10° SW 20:07:53 42° SSE 20:12:47 10° ENE
ATLAS 3B R/B 2.9 20:02:02 10° S 20:08:13 47° ESE 20:14:37 10° NE
Cosmos 1707 4.5 20:04:58 10° SW 20:08:32 35° WNW 20:12:10 10° N
Cosmos 1461 4.2 20:07:15 10° NW 20:11:03 32° WSW 20:14:39 10° S
Cosmos 2333 4.4 20:05:43 10° S 20:11:17 54° ESE 20:16:52 10° NE
ATLAS CENTAUR R/B 1.6 20:09:33 10° NW 20:13:53 74° SW 20:18:22 10° SSE
Cosmos 2173 Rocket 4.2 20:09:31 10° NNW 20:15:56 80° W 20:22:17 10° S
Cosmos 405 3.1 20:13:10 10° N 20:16:35 56° ENE 20:19:49 11° SSE
Cosmos 2016 Rocket 4.0 20:13:46 10° N 20:19:54 77° E 20:26:02 10° SSE
SL-4 R/B 3.5 20:19:26 10° S 20:22:02 16° SE 20:24:31 10° E
Cosmos 2219 Rocket 2.5 20:18:39 10° S 20:24:05 49° ESE 20:29:33 10° NE
Meteor 2-5 Rocket 4.1 20:19:17 10° SSE 20:24:33 46° E 20:29:54 10° NNE
Cosmos 2333 Rocket 2.3 20:19:47 10° S 20:25:23 57° ESE 20:31:00 10° NE
FALCON 9 DEB 3.3 20:24:30 10° SW 20:27:26 39° SSE 20:30:24 10° ENE
ERS-1 Rocket 3.0 20:24:10 10° SSE 20:29:13 84° ENE 20:34:18 10° NNW
Geosat 4.0 20:24:37 11° SSE 20:29:28 88° WSW 20:34:32 10° NNW
Cosmos 1025 Rocket 3.1 20:25:36 10° S 20:30:00 84° WNW 20:34:23 10° N
Cosmos 1844 4.3 20:25:00 10° NW 20:30:23 50° WSW 20:35:46 10° S
Lacrosse 5 rocket 1.0 20:27:29 10° SW 20:31:09 89° NW 20:34:46 10° ENE
OPS 8737 4.3 20:27:40 10° SW 20:31:35 76° SE 20:34:40 10° NE
Cosmos 1536 Rocket 3.7 20:28:34 10° S 20:32:56 59° E 20:37:19 10° NNE
Cosmos 2228 4.0 20:29:44 10° N 20:33:49 35° ENE 20:37:16 13° SE
Spot 2 Rocket 3.9 20:29:03 10° S 20:34:04 64° WSW 20:39:08 10° NNW
USA 215 4.5 20:29:57 10° E 20:34:17 18° ESE 20:38:12 11° SSE
Cosmos 1725 Rocket 4.0 20:28:06 10° N 20:34:19 84° E 20:40:27 10° S
Cosmos 1331 Rocket 4.3 20:32:30 10° SSW 20:37:44 71° WNW 20:43:03 10° NNE
DNEPR-1 R/B 4.0 20:35:50 10° NW 20:39:57 52° SW 20:43:36 14° SSE
FALCON 9 DEB 2.7 20:39:58 10° SW 20:43:01 65° SSE 20:46:06 10° ENE
CARTOSAT-1 4.3 20:40:37 10° S 20:44:48 49° W 20:49:01 10° NNW
CENTAUR R/B 4.4 20:39:13 10° W 20:45:13 38° NNW 20:52:17 10° NE
Cosmos 2237 Rocket 3.4 20:41:59 14° SSE 20:45:25 24° ESE 20:49:48 10° NE
Terra 1.8 20:41:19 13° SSE 20:45:33 84° ENE 20:50:22 10° NNW
SL-14 R/B 3.4 20:42:10 10° S 20:46:13 84° W 20:50:15 10° N
Cosmos 2360 Rocket 3.1 20:42:59 10° SW 20:48:31 53° NW 20:54:03 10° NNE
Cosmos 1953 4.3 20:47:35 10° NW 20:50:55 25° W 20:54:14 10° SW
FALCON 9 DEB 2.8 20:47:55 10° SW 20:50:59 61° SSE 20:54:04 10° ENE
Cosmos 1455 3.6 20:49:24 10° NNE 20:52:39 26° ENE 20:55:06 14° ESE
Cosmos 2322 Rocket 4.1 20:47:45 10° WSW 20:52:56 34° NW 20:58:08 10° NNE
SPOT 5 3.3 20:48:16 11° S 20:53:08 63° WSW 20:57:56 10° NNW
SL-16 R/B 4.4 20:48:16 10° WSW 20:53:09 29° NW 20:58:04 10° NNE
FALCON 9 DEB 2.7 20:50:28 10° WSW 20:53:34 73° SSE 20:56:41 10° ENE
Meteor 1-24 Rocket 3.7 20:51:24 11° S 20:56:31 66° E 21:02:01 10° NNE
H-2A R/B 3.6 20:52:36 10° NNE 20:56:38 55° E 20:59:53 15° S
Cosmos 1302 Rocket 4.0 20:53:46 10° SSW 20:59:02 87° WNW 21:04:20 10° NNE
GEOS 3 Rocket 4.5 20:57:34 10° ESE 21:02:42 48° NE 21:07:48 10° NW
Cosmos 1300 3.3 20:59:27 10° NNW 21:03:11 52° W 21:06:19 14° S
Resurs 01 Rocket 4.3 21:04:44 10° WSW 21:06:27 12° W 21:08:10 10° WNW
USA 267 3.9 21:03:57 10° E 21:10:19 57° NNE 21:16:43 10° WNW
Cosmos 1340 3.9 21:08:42 10° SW 21:12:16 40° WNW 21:15:52 10° N
Cosmos 2322 4.1 21:10:29 10° SW 21:16:06 65° WNW 21:21:45 10° NNE
Cosmos 2278 Rocket 2.2 21:11:01 10° NNW 21:16:44 87° ENE 21:20:55 19° SSE
COSMOS 2428 2.8 21:11:59 10° SSW 21:17:44 86° WNW 21:23:32 10° NNE
Cosmos 389 Rocket 2.4 21:18:55 10° NNW 21:22:21 76° W 21:24:17 24° S
GENESIS II 4.4 21:20:01 17° SSW 21:22:49 47° SE 21:26:35 10° NE
NOSS 0 Rocket 4.0 21:18:00 11° S 21:23:46 59° ESE 21:29:55 10° NE
Cosmos 1726 Rocket 3.6 21:19:36 10° N 21:24:05 72° ENE 21:26:53 22° SSE
Cosmos 2058 Rocket 3.7 21:20:10 10° N 21:24:28 46° ENE 21:27:08 21° SE
Cosmos 1867 4.0 21:19:56 10° NW 21:25:16 53° WSW 21:28:54 20° S
Cosmos 968 Rocket 4.3 21:25:01 10° NW 21:29:50 42° WSW 21:33:29 16° S
CZ-3B R/B 4.5 21:02:53 10° WSW 21:35:33 85° NNW 21:41:27 10° ENE
SJ 16-02 3.1 21:33:26 10° N 21:37:04 24° NE 21:40:30 11° ESE
FALCON 9 DEB 4.2 21:35:38 10° W 21:38:59 47° N 21:42:18 10° ENE
Meteor 2-10 Rocket 3.9 21:34:06 10° NNW 21:39:03 54° W 21:42:36 18° SSW
Cosmos 1606 Rocket 3.8 21:35:16 10° NNW 21:39:43 65° W 21:42:32 22° S
Cosmos 1943 Rocket 3.4 21:37:16 10° NNW 21:42:20 35° NE 21:47:22 10° ESE
Cosmos 1992 Rocket 4.0 21:37:58 12° SSW 21:42:54 86° WNW 21:48:10 10° NNE
Spot 4 4.0 21:41:10 23° SSE 21:44:09 69° ENE 21:48:54 10° N
Cosmos 1892 Rocket 3.5 21:43:59 24° S 21:46:37 75° E 21:51:06 10° NNE
Cosmos 1891 Rocket 4.5 21:42:39 10° N 21:48:51 85° E 21:53:08 22° S
Cosmos 1346 Rocket 3.5 21:47:03 15° SSW 21:50:14 52° WNW 21:54:13 10° N
Meteor 1-4 Rocket 3.6 21:47:47 10° N 21:50:58 32° ENE 21:52:29 22° ESE
Cosmos 1354 Rocket 4.1 21:46:24 10° NNW 21:51:45 72° WSW 21:55:00 24° S
ATLAS CENTAUR R/B 3.9 21:50:33 10° W 21:52:07 12° WSW 21:53:41 10° SW
Cosmos 1513 Rocket 4.4 21:46:10 10° N 21:52:18 87° E 21:56:24 22° S
Cosmos 1980 3.7 21:51:14 15° SSW 21:56:02 80° ESE 22:01:45 10° NNE
Cosmos 1441 Rocket 3.5 21:54:42 30° SSE 21:56:16 50° E 21:59:58 10° NNE
BREEZE-M DEB (TANK) 3.2 21:48:45 10° SW 21:57:28 45° SSE 22:00:32 10° E
ATLAS 3B R/B 3.5 21:52:27 10° WSW 21:58:53 53° NW 22:05:35 10° NE
ALOS 2 3.0 21:57:54 24° SE 22:00:20 56° ENE 22:04:39 10° N
SL-4 R/B 1.8 21:57:06 10° SW 22:01:07 59° SSE 22:04:49 10° ENE
NOSS 3-1 (C) 4.3 21:59:23 22° SE 22:01:15 26° ESE 22:06:11 10° ENE
FALCON 9 DEB 3.5 22:00:00 10° W 22:03:06 57° NNW 22:06:12 10° ENE
Cosmos 724 4.4 22:00:42 10° NW 22:06:56 82° NE 22:11:24 19° SE
Cosmos 2219 Rocket 3.7 22:03:01 10° WSW 22:08:14 36° NW 22:13:27 10° NNE
Cosmos 1607 4.3 22:03:02 10° NW 22:09:13 51° WSW 22:12:53 24° S
Cosmos 2333 Rocket 4.0 22:04:53 10° WSW 22:10:00 32° NW 22:15:07 10° NNE
Cosmos 1703 3.2 22:08:43 31° S 22:10:29 75° E 22:14:27 10° NNE
Lacrosse 5 rocket 3.1 22:07:22 10° WNW 22:10:36 29° NNW 22:13:47 10° NE
Cosmos 1626 Rocket 3.9 22:12:19 28° SSE 22:14:20 51° E 22:18:38 10° NNE
USA 215 3.3 22:11:46 10° ENE 22:18:14 60° SE 22:24:41 10° SW
FALCON 9 DEB 4.0 22:15:43 10° W 22:18:44 46° N 22:21:45 10° ENE
Meteor 2-1 Rocket 4.3 22:13:27 10° NNW 22:18:56 67° W 22:22:14 25° S
Cosmos 2346 Rocket 4.4 22:16:23 23° S 22:20:27 88° E 22:26:42 10° N
Cosmos 1602 Rocket 4.2 22:20:35 28° SSE 22:22:32 45° E 22:26:50 10° NNE
Terra 4.2 22:21:30 10° WSW 22:23:57 14° W 22:26:25 10° NW
COBE Rocket 4.0 22:22:10 27° S 22:24:54 71° WSW 22:29:49 10° NNW
FALCON 9 DEB 3.9 22:23:43 10° W 22:26:46 48° N 22:29:49 10° ENE
SL-16 R/B 2.5 22:23:55 26° S 22:26:51 50° ESE 22:32:19 10° NE
Cosmos 1455 3.7 22:24:55 10° NNW 22:28:14 28° W 22:29:59 19° SW
Cosmos 2237 Rocket 2.5 22:23:44 12° SW 22:29:00 66° WNW 22:34:38 10° NNE
FALCON 9 DEB 4.0 22:26:19 10° W 22:29:20 45° N 22:32:21 10° ENE
Cosmos 1464 Rocket 4.4 22:24:05 10° NNW 22:30:18 57° W 22:34:26 22° SSW
Cosmos-2242 4.0 22:27:02 10° N 22:31:11 39° ENE 22:33:34 22° SE
Cosmos 1184 Rocket 3.9 22:29:49 22° SW 22:31:21 37° WNW 22:34:25 10° N
Cosmos 1328 3.7 22:31:00 35° S 22:32:33 82° E 22:36:29 10° NNE
Cosmos 2369 Rocket 3.1 22:30:59 10° NNW 22:36:31 46° NE 22:41:40 12° SE
Cosmos 1634 Rocket 4.3 22:33:09 10° N 22:39:27 64° ENE 22:43:33 23° SSE
GEOS 3 Rocket 4.1 22:38:08 27° S 22:40:44 47° SW 22:45:54 10° NW
ATLAS CENTAUR R/B 3.6 22:40:44 15° SW 22:45:20 75° SE 22:59:35 10° NE
USA 32 4.0 22:45:18 10° N 22:50:34 84° W 22:53:23 28° S
Aureole 3 3.5 22:47:15 10° N 22:51:06 74° E 22:53:19 30° SSE
NOSS 2-3 (D) 4.2 22:51:08 32° SSE 22:52:18 38° ESE 22:56:43 10° NE
USA 267 3.2 22:46:53 11° SE 22:53:14 74° SW 22:59:49 10° WNW
Cosmos 1812 Rocket 3.6 22:53:06 10° NNW 22:57:28 72° W 22:59:21 33° S
Cosmos 2278 Rocket 4.1 22:56:30 10° WNW 23:00:03 17° W 23:02:45 13° SW
BREEZE-M DEB (TANK) 3.3 22:57:20 10° W 23:01:08 90° SW 23:13:35 10° E
Cosmos 2297 3.9 22:57:44 10° NW 23:03:16 57° WSW 23:06:10 28° S
Thor Agena Rocket 3.6 23:01:44 10° NNE 23:07:00 74° ESE 23:09:46 28° S
SAR-Lupe-2 3.7 23:04:36 10° N 23:08:11 69° WNW 23:09:33 35° SW
NOSS 2-3 (C) 3.7 23:07:22 33° S 23:09:00 56° SE 23:13:47 10° NE
Resurs 1-4 Rocket 4.3 23:11:39 10° NE 23:14:38 15° E 23:17:36 10° ESE
SJ 16-02 1.8 23:11:40 10° NNW 23:15:51 45° WSW 23:17:27 31° SSW
FALCON 9 DEB 3.4 23:12:45 10° WNW 23:16:09 66° NNE 23:19:33 10° E
Cosmos 1174 4.4 23:14:18 19° SW 23:18:19 80° NW 23:22:51 10° NE
Meteor 1-11 4.4 23:19:57 24° SSW 23:23:21 65° WNW 23:28:56 10° N
Exosat Rocket 4.3 23:20:17 24° S 23:23:45 47° ESE 23:28:46 10° NE
GP-B 3.4 23:19:32 10° N 23:23:55 56° W 23:26:01 28° SSW
Meteor 1-27 4.2 23:18:34 10° NNW 23:24:07 72° W 23:27:14 27° S
Meteor 1-4 Rocket 4.4 23:23:17 10° NW 23:25:43 18° W 23:26:36 17° WSW
Cosmos 1943 Rocket 2.5 23:20:58 10° NW 23:26:15 48° WSW 23:28:53 27° SSW
In-Cosmos 22 Rocket 4.2 23:23:39 27° S 23:26:46 71° E 23:32:12 10° NNE
Cosmos 1825 Rocket 3.5 23:25:14 32° S 23:27:18 85° E 23:31:47 10° N
Cosmos 1932 4.4 23:24:03 10° NW 23:30:19 87° NE 23:36:16 11° SE
X-37B 2.9 23:33:13 14° ESE 23:33:13 14° ESE 23:33:49 10° ESE
Cosmos 1892 2.6 23:30:16 36° S 23:31:47 87° ESE 23:35:41 10° N
Cosmos 2142 Rocket 4.5 23:27:54 10° NNW 23:34:03 78° W 23:37:52 25° S
Cosmos 540 Rocket 4.4 23:32:30 22° SSE 23:35:03 36° ESE 23:39:42 10° NE
Cosmos 1437 Rocket 3.4 23:31:20 10° N 23:35:08 49° ENE 23:37:15 23° SE
Helios 1A 3.8 23:32:32 18° SE 23:35:22 47° ENE 23:39:25 10° N
Cosmos 1869 3.4 23:32:21 10° NNW 23:36:27 68° W 23:38:08 33° S
CZ-2D R/B 3.9 23:32:47 10° NE 23:36:44 21° E 23:40:22 11° SE
ALOS 2 4.5 23:35:17 15° WSW 23:37:01 18° W 23:40:06 10° NW
FALCON 9 DEB 4.0 23:36:04 10° WNW 23:39:07 46° N 23:42:09 10° E
Cosmos 1943 3.7 23:36:45 25° S 23:39:44 48° ESE 23:45:09 10° NE
Cosmos 990 Rocket 4.0 23:34:47 10° NNW 23:39:58 68° WSW 23:42:50 26° S
SL-4 R/B 2.1 23:36:50 10° W 23:40:42 66° N 23:44:18 10° ENE
Lacrosse 4 Rocket 3.0 23:37:07 10° NNW 23:40:54 33° NE 23:44:36 10° ESE
EO 1 Del DPAF 3.1 23:37:27 10° NNE 23:41:10 76° ESE 23:42:38 35° S
USA 229 DEB 3.6 23:38:46 22° SSW 23:43:11 78° SE 23:50:06 10° NE
USA 229 3.6 23:38:53 22° SSW 23:43:17 77° SE 23:50:12 10° NE
NOSS 8 (F) 4.1 23:43:54 36° SW 23:45:01 79° NW 23:48:00 10° NE
Cosmos 841 Rocket 4.3 23:44:06 22° SSE 23:46:52 39° ESE 23:51:37 10° NE
Cosmos 1603 3.9 23:46:12 25° S 23:49:24 58° ESE 23:54:57 10° NE
Lacrosse 5 rocket 3.3 23:47:17 10° NW 23:50:25 27° N 23:53:34 10° ENE
NOSS 3-1 (C) 3.6 23:46:44 15° SW 23:51:24 69° NW 23:57:57 10° NE
Cosmos 1953 Rocket 3.5 23:50:42 30° SSW 23:52:51 80° W 23:57:18 10° N
Cosmos 1242 Rocket 3.5 23:49:28 10° N 23:52:55 42° ENE 23:55:13 19° SE
SL-16 R/B 3.4 23:47:03 10° SE 23:52:55 47° ENE 23:58:48 10° N
Cosmos 1408 2.8 23:53:09 33° SSW 23:54:37 61° WNW 23:58:18 10° N
FALCON 9 DEB 3.6 23:51:36 10° WNW 23:54:39 54° NNE 23:57:41 10° E
Cosmos 1825 2.1 23:54:28 33° S 23:56:04 79° E 23:59:51 10° NNE
